Des Moines, IA

6:01 AM CST on November 13, 2019 (GMT -0600)
Des Moines International

Weather History for KDSM - October, 2019

Change the Weather History Date:

Wednesday, October 23, 2019

  Actual Average Record
Temperature  
Mean Temperature 48 °F 50 °F  
Max Temperature 60 °F 60 °F 84 °F (1899)
Min Temperature 36 °F 41 °F 21 °F (1937)
Degree Days  
Heating Degree Days 17 15  
Month to date heating degree days 305 253  
Since 1 July heating degree days 315 353  
Cooling Degree Days 0 0  
Month to date cooling degree days 9 11  
Year to date cooling degree days 1160 1063  
Moisture  
Dew Point 37 °F    
Average Humidity 76    
Maximum Humidity 89    
Minimum Humidity 51    
Precipitation  
Precipitation 0.04 in 0.09 in 1.19 in (1977)
Month to date precipitation 7.29 1.97  
Year to date precipitation 46.61 31.74  
Snow  
Snow 0.00 in 0.00 in 0.80 in (1938)
Month to date snowfall T 0.2  
Since 1 July snowfall T 0.2  
Since 1 September snowfall T 0.2  
Snow Depth 0.00 in    
Sea Level Pressure  
Sea Level Pressure 29.94 in    
Wind  
Wind Speed 6 mph ()    
Max Wind Speed 20 mph    
Max Gust Speed 28 mph    
Visibility 10.0 miles    
Events Rain    
T = Trace of Precipitation, MM = Missing Value Source: Averaged Metar Reports

Daily Weather History Graph

Daily Weather History Graph

Search for Another Location

Airport or City:

Astronomy

Oct. 23, 2019 Rise Set
Actual Time 7:35 AM CDT 6:21 PM CDT
Civil Twilight 7:07 AM CDT 6:50 PM CDT
Nautical Twilight 6:34 AM CDT 7:22 PM CDT
Astronomical Twilight 6:02 AM CDT 7:54 PM CDT
Moon 1:49 AM CDT (10/23) 4:17 PM CDT (10/23)
Length of Visible Light 11h 42m
Length of Day
10h 46m
Waning Crescent, 26% of the Moon is Illuminated
Oct 23
Waning Crescent
Oct 27
New
Nov 4
First Quarter
Nov 12
Full
Nov 19
Last Quarter

Hourly Weather History & Observations

Time (CDT) Temp. Windchill Dew Point Humidity Pressure Visibility Wind Dir Wind Speed Gust Speed Precip Events Conditions
12:54 AM 39.0 °F 36.8 °F 30.9 °F 73% 29.87 in 10.0 mi SSW 3.5 mph - N/A   Partly Cloudy
1:54 AM 39.0 °F 36.8 °F 30.9 °F 73% 29.86 in 10.0 mi South 3.5 mph - N/A   Scattered Clouds
2:54 AM 37.0 °F 32.4 °F 30.9 °F 79% 29.86 in 10.0 mi SSW 5.8 mph - N/A   Partly Cloudy
3:54 AM 39.0 °F - 32.0 °F 76% 29.86 in 10.0 mi Calm Calm - N/A   Scattered Clouds
4:54 AM 39.0 °F 35.7 °F 34.0 °F 82% 29.85 in 10.0 mi South 4.6 mph - N/A   Overcast
5:54 AM 39.9 °F - 34.0 °F 79% 29.85 in 10.0 mi Calm Calm - 0.00 in   Overcast
6:54 AM 43.0 °F - 34.0 °F 71% 29.87 in 10.0 mi Calm Calm - N/A   Overcast
7:54 AM 42.1 °F 38.4 °F 37.9 °F 85% 29.85 in 10.0 mi ESE 5.8 mph - 0.03 in Rain Light Rain
8:54 AM 43.0 °F - 39.0 °F 86% 29.86 in 10.0 mi Calm Calm - 0.00 in   Mostly Cloudy
9:54 AM 45.0 °F 40.6 °F 41.0 °F 86% 29.88 in 10.0 mi SSE 8.1 mph - N/A   Mostly Cloudy
10:54 AM 51.1 °F - 42.1 °F 71% 29.86 in 10.0 mi SE 8.1 mph - N/A   Scattered Clouds
11:54 AM 55.9 °F - 42.1 °F 60% 29.85 in 10.0 mi SE 13.8 mph - N/A   Mostly Cloudy
12:54 PM 57.9 °F - 39.9 °F 51% 29.79 in 10.0 mi SE 10.4 mph - N/A   Mostly Cloudy
1:54 PM 57.0 °F - 39.9 °F 53% 29.84 in 10.0 mi Variable 3.5 mph - N/A   Overcast
2:54 PM 55.9 °F - 44.1 °F 64% 29.82 in 10.0 mi North 18.4 mph 27.6 mph N/A   Overcast
3:54 PM 51.1 °F - 45.0 °F 80% 29.86 in 10.0 mi NNE 15.0 mph - 0.00 in Rain Light Rain
4:54 PM 48.0 °F - 39.9 °F 74% 29.92 in 10.0 mi NNE 17.3 mph - 0.01 in   Overcast
5:54 PM 45.0 °F 38.5 °F 37.0 °F 74% 29.96 in 10.0 mi NNE 13.8 mph 25.3 mph N/A   Mostly Cloudy
6:44 PM 44.1 °F 37.7 °F 37.0 °F 76% 30.00 in 10.0 mi North 12.7 mph - N/A   Overcast
6:54 PM 44.1 °F 37.4 °F 37.0 °F 76% 30.02 in 10.0 mi North 13.8 mph 23.0 mph N/A   Overcast
7:54 PM 42.1 °F 34.9 °F 36.0 °F 79% 30.08 in 10.0 mi North 13.8 mph - N/A   Overcast
8:54 PM 41.0 °F 33.9 °F 37.0 °F 86% 30.11 in 10.0 mi North 12.7 mph - 0.00 in   Overcast
9:31 PM 41.0 °F 35.8 °F 36.0 °F 82% 30.12 in 10.0 mi North 8.1 mph - N/A   Overcast
9:54 PM 41.0 °F 33.9 °F 35.1 °F 79% 30.13 in 10.0 mi North 12.7 mph - N/A   Overcast
10:17 PM 39.9 °F 33.9 °F 35.1 °F 83% 30.13 in 10.0 mi North 9.2 mph - N/A   Mostly Cloudy
10:54 PM 39.9 °F 33.9 °F 35.1 °F 83% 30.19 in 10.0 mi NW 9.2 mph - N/A   Mostly Cloudy
11:54 PM 39.9 °F 35.1 °F 35.1 °F 83% 30.22 in 10.0 mi West 6.9 mph - N/A   Mostly Cloudy